User: anonymous   Login
Location: Wellington
(41.3000°S, 174.7830°E)
Time: 13:44:09
(UTC+13:00)
Language:

Resurs 01 Rocket - Orbit

View from above orbital plane
View from above orbital plane
View from above satellite
View from above satellite

Ground track
Ground track

The orbit data is extracted from the following two-line orbital elements,

1 23343U 94074B   19077.84791387  .00000019  00000-0  10210-4 0  9998
2 23343  98.0653 128.0149 0007091 168.7783 286.0166 14.76768837311236
Epoch (UTC): 18 March 2019 20:20:59
Eccentricity: 0.0007091
inclination: 98.0653°
perigee height: 634 km
apogee height: 644 km
right ascension of ascending node: 128.0149°
argument of perigee: 168.7783°
revolutions per day: 14.76768837
mean anomaly at epoch: 286.0166°
orbit number at epoch: 31123

The dashed part of the orbit path shows where the satellite is in the earth's shadow,  

DLR